Jacksonville NAS, FL

10:03 PM EDT on July 25, 2017 (GMT -0400)
Jacksonville Naval Air Station

Weather History for KNIP - October, 2012

Change the Weather History Date:

Sunday, October 28, 2012

  Actual Average Record
Temperature  
Mean Temperature 67 °F -  
Max Temperature 77 °F 76 °F 91 °F (2010)
Min Temperature 59 °F 60 °F 32 °F (2011)
Cooling Degree Days 2    
Growing Degree Days 17 (Base 50)    
Moisture  
Dew Point 56 °F    
Average Humidity 71    
Maximum Humidity 90    
Minimum Humidity 50    
Precipitation  
Precipitation 0.00 in - - ()
Sea Level Pressure  
Sea Level Pressure 29.69 in    
Wind  
Wind Speed 12 mph (WNW)    
Max Wind Speed 17 mph    
Max Gust Speed 29 mph    
Visibility 10 miles    
Events      
Averages and records for this station are not official NWS values.
T = Trace of Precipitation, MM = Missing Value Source: NWS Daily Summary

Daily Weather History Graph

Daily Weather History Graph

Search for Another Location

Airport or City:

Trip Planner

Search our weather history database for the weather conditions in past years. The results will help you decide how hot, cold, wet, or windy it might be!

Date:

Astronomy

Oct. 28, 2012 Rise Set
Actual Time 7:38 AM EDT 6:42 PM EDT
Civil Twilight 7:13 AM EDT 7:06 PM EDT
Nautical Twilight 6:45 AM EDT 7:35 PM EDT
Astronomical Twilight 6:17 AM EDT 8:03 PM EDT
Moon 5:58 PM EDT (10/28) 6:32 AM EDT (10/28)
Length of Visible Light 11h 53m
Length of Day
11h 04m
Waxing Gibbous, 99% of the Moon is Illuminated
Oct 28
Waxing Gibbous
Oct 29
Full
Nov 6
Last Quarter
Nov 13
New
Nov 20
First Quarter

Hourly Weather History & Observations

Time (EDT) Temp. Dew Point Humidity Pressure Visibility Wind Dir Wind Speed Gust Speed Precip Events Conditions
12:53 AM 70.0 °F 61.0 °F 73% 29.66 in 10.0 mi NW 15.0 mph 21.9 mph N/A   Mostly Cloudy
1:53 AM 69.1 °F 60.1 °F 73% 29.66 in 10.0 mi NW 11.5 mph 21.9 mph N/A   Mostly Cloudy
2:53 AM 66.9 °F 60.1 °F 79% 29.65 in 10.0 mi NW 15.0 mph 24.2 mph N/A   Mostly Cloudy
3:53 AM 66.0 °F 60.1 °F 81% 29.65 in 10.0 mi NW 11.5 mph - N/A   Mostly Cloudy
4:53 AM 64.0 °F 59.0 °F 84% 29.66 in 10.0 mi WNW 11.5 mph - N/A   Scattered Clouds
5:53 AM 63.0 °F 57.9 °F 84% 29.68 in 10.0 mi WNW 9.2 mph - N/A   Clear
6:53 AM 61.0 °F 57.0 °F 87% 29.69 in 10.0 mi NW 10.4 mph - N/A   Partly Cloudy
7:53 AM 59.0 °F 55.9 °F 90% 29.70 in 10.0 mi WNW 9.2 mph - N/A   Partly Cloudy
8:53 AM 60.1 °F 55.0 °F 83% 29.72 in 10.0 mi WNW 10.4 mph - N/A   Partly Cloudy
9:53 AM 62.1 °F 55.0 °F 78% 29.72 in 10.0 mi WNW 11.5 mph - N/A   Partly Cloudy
10:53 AM 64.9 °F 55.0 °F 70% 29.72 in 10.0 mi NW 9.2 mph - N/A   Partly Cloudy
11:53 AM 68.0 °F 55.9 °F 65% 29.71 in 10.0 mi NW 9.2 mph - N/A   Partly Cloudy
12:53 PM 71.1 °F 55.9 °F 59% 29.70 in 10.0 mi West 10.4 mph - N/A   Scattered Clouds
1:53 PM 73.9 °F 57.0 °F 55% 29.67 in 10.0 mi West 10.4 mph - N/A   Scattered Clouds
2:53 PM 75.0 °F 57.0 °F 53% 29.65 in 10.0 mi West 10.4 mph - N/A   Partly Cloudy
3:53 PM 75.9 °F 55.9 °F 50% 29.64 in 10.0 mi West 15.0 mph - N/A   Partly Cloudy
4:53 PM 75.9 °F 57.9 °F 54% 29.64 in 10.0 mi WNW 12.7 mph 18.4 mph N/A   Partly Cloudy
5:53 PM 73.9 °F 57.9 °F 57% 29.66 in 10.0 mi West 13.8 mph 17.3 mph N/A   Partly Cloudy
6:53 PM 70.0 °F 57.0 °F 63% 29.68 in 10.0 mi West 11.5 mph - N/A   Partly Cloudy
7:53 PM 66.9 °F 57.0 °F 70% 29.70 in 10.0 mi West 12.7 mph - N/A   Scattered Clouds
8:53 PM 63.0 °F 54.0 °F 72% 29.73 in 10.0 mi WNW 17.3 mph 24.2 mph N/A   Mostly Cloudy
9:53 PM 60.1 °F 54.0 °F 80% 29.75 in 10.0 mi West 11.5 mph - N/A   Mostly Cloudy
10:53 PM 60.1 °F 53.1 °F 78% 29.76 in 10.0 mi WNW 10.4 mph - N/A   Scattered Clouds
11:17 PM 60.8 °F 51.8 °F 72% 29.77 in 10.0 mi WNW 12.7 mph 21.9 mph N/A   Overcast
11:53 PM 60.1 °F 50.0 °F 69% 29.77 in 10.0 mi NW 16.1 mph 28.8 mph N/A   Overcast